リニア彗星

C/2007 D1 ( LINEAR )

English version
Home page
Total 6,336 html files since Dec. 4, 1995
Updated on April 3, 2008

---------------------------------------------------------------------

・ プロフィール

発見日 2007年2月17日
発見光度 18.9等
発見者 Lincoln Laboratory Near-Earth Asteroid Research project

・ 写真集

・ 軌道要素

Epoch 2007 June 29.0 TT = JDT 2454280.5
T 2007 June 19.36422 TT                                 MPC
q   8.7936045            (2000.0)            P               Q
z  -0.0002081      Peri.  340.15361     -0.88990673     -0.44449527
 +/-0.0000045      Node   171.09922     +0.45357852     -0.83853520
e   1.0018299      Incl.   41.44931     -0.04829635     +0.31509153

・ 星図

・ 光度変化

        m1 = 3.5 + 5 logΔ + 10.0 log r

---------------------------------------------------------------------

軌道要素はM.P.E.C. 2007-W67に掲載されたものです。
星図は StellaNavigator Ver.2.0 for Windows (アストロアーツ 編著 / アスキー出版局刊) で作成したものです。
光度グラフはComet for Windowsで作成したものです。

---------------------------------------------------------------------

Copyright(C) 1995-2008 Seiichi Yoshida (comet@aerith.net). All rights reserved.